Location: Crab Orchard
(37.7292°N, 88.8042°W)
Time: 00:01:41
(UTC+00:00)

IRS-1C Rocket - Pass Details

Date: 08 December 2019
Orbit: 800 x 806 km, 99.0° (Epoch: 22 January)

Event Time Altitude Azimuth Distance (km) Brightness Sun altitude
Rises 12:19:07 0° 12° (NNE) 3,318 7.2 -7.7°
Reaches altitude 10° 12:21:27 10° 11° (NNE) 2,383 6.4 -7.3°
Maximum altitude 12:26:43 81° 286° (WNW) 814 4.1 -6.3°
Drops below altitude 10° 12:31:57 10° 199° (SSW) 2,366 6.6 -5.4°
Sets 12:34:16 0° 198° (SSW) 3,292 7.4 -5.0°
